Location: Anjeux
(47.8815°N, 6.2076°E)
Time: 04:04:24
(UTC+00:00)

BEESAT - Visible Passes

Search period start: 06 December 2021 00:00
Search period end: 16 December 2021 00:00
Orbit: 700 x 707 km, 98.6° (Epoch: 05 December)

Date Brightness Start Highest point End Pass type
(mag) Time Alt. Az. Time Alt. Az. Time Alt. Az.
06 Dec ? 04:42:48 10° E 04:45:07 14° NE 04:47:26 10° NNE visible
06 Dec ? 06:17:20 10° SSE 06:22:06 85° ENE 06:26:55 10° NNW visible
07 Dec ? 05:23:44 10° ESE 05:27:47 29° ENE 05:31:54 10° N visible
08 Dec ? 04:32:41 10° ENE 04:33:55 11° NE 04:35:09 10° NE visible
08 Dec ? 06:06:01 10° SSE 06:10:45 67° ENE 06:15:31 10° N visible
09 Dec ? 05:12:47 10° ESE 05:16:32 23° ENE 05:20:18 10° N visible
10 Dec ? 05:54:47 10° SE 05:59:24 53° ENE 06:04:04 10° N visible
11 Dec ? 05:01:57 10° ESE 05:05:16 19° ENE 05:08:37 10° NNE visible
12 Dec ? 05:43:37 10° SE 05:48:04 42° ENE 05:52:35 10° N visible
13 Dec ? 04:51:16 10° E 04:54:02 16° ENE 04:56:51 10° NNE visible
13 Dec ? 06:26:22 10° SSE 06:31:09 82° WSW 06:35:58 10° NNW visible
14 Dec ? 05:32:31 10° SE 05:36:47 33° ENE 05:41:03 10° N visible
15 Dec ? 04:40:47 10° E 04:42:50 13° NE 04:44:52 10° NNE visible
15 Dec ? 06:15:01 10° SSE 06:19:46 79° ENE 06:24:35 10° NNW visible
